| time (UTC) | temp C | wind direction | speed KPH | gust KPH | rain 1hr cm | rain 24hr cm | rain mn cm | humidity % | barometer mb |
| 20260505203016 | 16 | 146 | 4.8 | 9.7 | 0.00 | 1.09 | 0.00 | 54 | 1014.2 |
| 20260505202024 | 15 | 138 | 4.8 | 11.3 | 0.00 | 1.09 | 0.00 | 56 | 1014.4 |
| 20260505201103 | 15 | 152 | 4.8 | 9.7 | 0.00 | 1.09 | 0.00 | 56 | 1014.4 |
| 20260505200022 | 15 | 172 | 4.8 | 12.9 | 0.00 | 1.09 | 0.00 | 56 | 1014.4 |
| 20260505195021 | 15 | 153 | 6.4 | 16.1 | 0.00 | 1.09 | 0.00 | 57 | 1014.4 |
| 20260505194039 | 16 | 149 | 6.4 | 20.9 | 0.00 | 1.09 | 0.00 | 56 | 1014.4 |
| 20260505193018 | 15 | 147 | 8.0 | 17.7 | 0.00 | 1.09 | 0.00 | 56 | 1014.4 |
| 20260505192016 | 15 | 137 | 6.4 | 14.5 | 0.00 | 1.09 | 0.00 | 58 | 1014.5 |
| 20260505191024 | 14 | 4 | 4.8 | 14.5 | 0.00 | 1.09 | 0.00 | 59 | 1014.5 |
| 20260505190022 | 13 | 145 | 6.4 | 11.3 | 0.00 | 1.09 | 0.00 | 60 | 1014.4 |
| 20260505185100 | 13 | 130 | 6.4 | 11.3 | 0.00 | 1.09 | 0.00 | 63 | 1014.6 |
| 20260505184019 | 13 | 32 | 6.4 | 16.1 | 0.00 | 1.09 | 0.00 | 62 | 1014.4 |
| 20260505183018 | 13 | 89 | 6.4 | 14.5 | 0.00 | 1.09 | 0.00 | 63 | 1014.4 |
| 20260505182016 | 13 | 134 | 8.0 | 14.5 | 0.00 | 1.09 | 0.00 | 64 | 1014.5 |
| 20260505181046 | 12 | 147 | 9.7 | 17.7 | 0.00 | 1.09 | 0.00 | 64 | 1014.4 |
| 20260505180023 | 13 | 155 | 9.7 | 17.7 | 0.00 | 1.09 | 0.00 | 65 | 1014.3 |
| 20260505175019 | 12 | 130 | 6.4 | 14.5 | 0.00 | 1.09 | 0.00 | 66 | 1014.1 |
| 20260505174038 | 12 | 134 | 8.0 | 16.1 | 0.00 | 1.09 | 0.00 | 67 | 1014.1 |
| 20260505173016 | 11 | 289 | 6.4 | 14.5 | 0.00 | 1.09 | 0.00 | 71 | 1014.0 |
| 20260505172024 | 10 | 340 | 4.8 | 12.9 | 0.00 | 1.09 | 0.00 | 71 | 1014.0 |
| 20260505171024 | 10 | 306 | 4.8 | 12.9 | 0.00 | 1.09 | 0.00 | 74 | 1014.1 |
| 20260505170022 | 10 | 303 | 6.4 | 22.5 | 0.00 | 1.09 | 0.00 | 74 | 1014.2 |
| 20260505165021 | 9 | 325 | 4.8 | 9.7 | 0.00 | 1.09 | 0.00 | 76 | 1014.0 |
| 20260505164020 | 9 | 293 | 8.0 | 20.9 | 0.00 | 1.09 | 0.00 | 77 | 1014.0 |
| 20260505163018 | 9 | 327 | 4.8 | 12.9 | 0.00 | 1.09 | 0.00 | 79 | 1014.1 |
| 20260505162017 | 8 | 330 | 3.2 | 9.7 | 0.00 | 1.09 | 0.00 | 79 | 1014.0 |
| 20260505161024 | 8 | 104 | 3.2 | 11.3 | 0.00 | 1.09 | 0.00 | 80 | 1014.0 |
| 20260505153017 | 7 | 136 | 3.2 | 8.0 | 0.00 | 1.09 | 0.00 | 84 | 1013.7 |
| 20260505152016 | 7 | 144 | 4.8 | 11.3 | 0.00 | 1.09 | 0.00 | 85 | 1013.6 |
| 20260505151015 | 7 | 141 | 3.2 | 9.7 | 0.00 | 1.09 | 0.00 | 87 | 1013.3 |
| 20260505125024 | 6 | 148 | 3.2 | 6.4 | 0.00 | 1.09 | 0.00 | 86 | 1012.1 |
| 20260505124023 | 6 | 145 | 8.0 | 14.5 | 0.00 | 1.09 | 0.00 | 86 | 1012.1 |
| 20260505123021 | 6 | 144 | 4.8 | 9.7 | 0.00 | 1.09 | 0.00 | 86 | 1012.0 |
| 20260505122019 | 6 | 131 | 6.4 | 17.7 | 0.00 | 1.09 | 0.00 | 87 | 1012.0 |
| 20260505121018 | 6 | 144 | 4.8 | 9.7 | 0.00 | 1.09 | 0.00 | 87 | 1012.0 |
| 20260505120037 | 6 | 147 | 4.8 | 9.7 | 0.00 | 1.09 | 0.00 | 87 | 1011.9 |
| 20260505115015 | 6 | 142 | 4.8 | 9.7 | 0.00 | 1.09 | 0.00 | 87 | 1011.8 |
| 20260505114024 | 6 | 142 | 4.8 | 9.7 | 0.00 | 1.09 | 0.00 | 87 | 1011.7 |
| 20260505113023 | 6 | 95 | 1.6 | 3.2 | 0.00 | 1.09 | 0.00 | 85 | 1011.8 |
| 20260505112022 | 6 | 134 | 3.2 | 6.4 | 0.00 | 1.09 | 0.00 | 84 | 1011.7 |
| 20260505111019 | 6 | 114 | 1.6 | 6.4 | 0.00 | 1.09 | 0.00 | 85 | 1011.9 |